Stations météo

réclame
Mon MeteoGroup
Toulouse/Blagnac, France (7630): Température de l'air & dewpoint: 12.10.2019 21:00:00 - 18.10.2019 21:00:00 (CEST)Toulouse/Blagnac, France (7630): Température de l'air 5cm: 12.10.2019 21:00:00 - 18.10.2019 21:00:00 (CEST)Toulouse/Blagnac, France (7630): Température de l'air -20cm & Température de l'air -100cm: 12.10.2019 21:00:00 - 18.10.2019 21:00:00 (CEST)Toulouse/Blagnac, France (7630): Vitesse du vent & gusts: 12.10.2019 21:00:00 - 18.10.2019 21:00:00 (CEST)Toulouse/Blagnac, France (7630): Direction du vent: 12.10.2019 21:00:00 - 18.10.2019 21:00:00 (CEST)Toulouse/Blagnac, France (7630): reduced air pressure: 12.10.2019 21:00:00 - 18.10.2019 21:00:00 (CEST)Toulouse/Blagnac, France (7630): visibility: 12.10.2019 21:00:00 - 18.10.2019 21:00:00 (CEST)Toulouse/Blagnac, France (7630): Ensoleillement: 12.10.2019 21:00:00 - 18.10.2019 21:00:00 (CEST)Toulouse/Blagnac, France (7630): Quantités de précipitations: 12.10.2019 21:00:00 - 18.10.2019 21:00:00 (CEST)
Date & Time tt [°C] td [°C] tt 5cm [°C] tt -20cm [°C] tt -100cm [°C] ff [km/h] ff [knt] fx [km/h] fx [knt] dd ppp [hPa] vv [km] sd [min] rr [mm]
18.10.2019 21:00:00 15,2 12,1 12,0 16,9 18,6 2 1 13 7 E 1012,8 31 0 0,0
18.10.2019 20:00:00 16,4 12,4 15,1 16,9 18,7 8 4 13 7 ENE 1013,5 39 0 0,0
18.10.2019 19:00:00 16,9 12,0 16,0 16,8 18,7 8 4 15 8 N 1014,4 43 0 0,0
18.10.2019 18:00:00 17,6 12,1 18,1 16,6 18,7 8 5 16 9 NNW 1014,6 51 0 0,0
18.10.2019 17:00:00 17,8 12,0 18,6 16,5 18,7 10 6 17 9 WNW 1014,9 45 0 0,0
18.10.2019 16:00:00 18,3 12,3 20,0 16,4 18,7 6 4 14 8 NW 1014,8 49 2 0,0
18.10.2019 15:00:00 17,4 12,1 18,4 16,3 18,7 8 5 18 10 NW 1015,4 52 0 0,0
18.10.2019 14:00:00 16,9 12,4 17,9 16,1 18,7 9 5 24 13 NNW 1016,3 45 0 0,0
18.10.2019 13:00:00 17,0 12,5 18,1 16,1 18,7 15 8 24 13 NNW 1016,9 38 0 0,0
18.10.2019 12:00:00 16,6 12,5 18,2 16,0 18,7 19 10 29 16 NNW 1017,0 40 6 0,0
18.10.2019 11:00:00 15,9 12,5 15,6 16,0 18,7 18 10 34 18 NNW 1016,7 35 32 0,0
18.10.2019 10:00:00 14,2 12,4 12,9 16,0 18,7 11 6 21 12 W 1016,2 34 2 0,0
18.10.2019 09:00:00 13,5 11,7 12,3 16,1 18,8 11 6 17 9 W 1015,4 33 0 0,0
18.10.2019 08:00:00 13,5 11,7 11,5 16,1 18,7 9 5 17 9 ENE 1013,8 23 0 0,0
18.10.2019 07:00:00 13,2 11,9 10,7 16,1 18,8 11 6 19 11 WNW 1015,0 13 0 0,2
18.10.2019 06:00:00 11,9 10,8 8,5 16,3 18,8 4 2 10 5 WSW 1013,6 28 0 0,0
18.10.2019 05:00:00 11,7 10,8 9,3 16,3 18,7 6 3 10 6 SSE 1013,5 23 0 0,0
18.10.2019 04:00:00 11,9 10,8 9,3 16,4 18,8 3 2 11 6 SSE 1013,8 18 0 0,0
18.10.2019 03:00:00 11,5 10,6 9,2 16,6 18,8 7 4 13 7 SSW 1014,8 21 0 0,0
18.10.2019 02:00:00 11,5 10,4 7,6 16,7 18,8 7 4 9 5 S 1015,2 17 0 0,0
18.10.2019 01:00:00 12,0 10,2 7,5 16,9 18,8 4 2 9 5 SSE 1015,6 21 0 0,0
18.10.2019 00:00:00 12,7 10,9 8,8 17,0 18,8 6 3 10 5 S 1015,7 19 0 0,0
17.10.2019 23:00:00 13,7 11,2 9,0 17,1 18,8 6 4 8 5 SSE 1016,1 14 0 0,0
17.10.2019 22:00:00 14,8 11,6 10,5 17,2 18,8 5 3 11 6 SSE 1016,0 4,7 0 0,0
17.10.2019 21:00:00 15,9 11,5 10,1 17,2 18,9 9 5 10 6 ESE 1015,7 20 0 0,0
17.10.2019 20:00:00 16,9 11,8 12,2 17,2 18,8 5 3 11 6 SE 1015,8 22 0 0,0
17.10.2019 19:00:00 18,5 11,8 17,0 17,2 18,9 9 5 22 12 SE 1014,8 31 46 0,0
17.10.2019 18:00:00 20,2 12,2 20,5 17,0 18,9 12 7 20 11 SE 1014,5 42 43 0,0
17.10.2019 17:00:00 20,4 11,9 21,8 16,9 18,9 10 5 24 13 E 1014,7 27 56 0,0
17.10.2019 16:00:00 20,3 12,3 24,0 16,7 18,9 14 8 27 14 SE 1014,7 40 48 0,0
17.10.2019 15:00:00 19,9 12,4 21,7 16,5 18,9 14 7 27 14 ESE 1014,9 30 11 0,0
17.10.2019 14:00:00 18,3 11,8 20,3 16,4 18,9 18 10 32 18 SE 1015,2 24 0 0,0
17.10.2019 13:00:00 17,5 12,2 18,1 16,3 18,9 18 10 29 16 ESE 1015,7 32 0 0,0
17.10.2019 12:00:00 16,1 12,5 16,5 16,3 18,9 6 3 14 8 NW 1016,1 32 0 0,0
17.10.2019 11:00:00 15,7 12,3 15,6 16,3 19,0 11 6 37 20 SSW 1016,4 30 0 0,0
17.10.2019 10:00:00 14,9 11,9 14,4 16,3 18,9 20 11 33 18 SE 1015,1 25 0 0,0
17.10.2019 09:00:00 14,2 11,7 13,2 16,4 18,9 17 9 35 19 SE 1015,1 35 18 0,0
17.10.2019 08:00:00 14,1 11,4 13,4 16,4 19,0 25 14 55 30 SE 1014,4 34 0 0,0
17.10.2019 07:00:00 14,5 12,0 13,2 16,5 19,0 29 16 49 27 SE 1014,1 31 0 0,0
17.10.2019 06:00:00 14,3 11,3 11,6 16,6 19,0 21 11 34 18 SSE 1014,5 45 0 0,0
17.10.2019 05:00:00 13,6 10,2 11,0 16,7 19,0 14 8 24 13 SE 1014,4 50 0 0,0
17.10.2019 04:00:00 13,5 10,3 11,6 16,8 19,0 10 5 21 11 SE 1015,0 50 0 0,0
17.10.2019 03:00:00 14,2 10,6 12,7 16,8 19,0 12 6 30 16 SE 1015,2 54 0 0,0
17.10.2019 02:00:00 14,7 11,1 13,4 16,9 19,0 19 10 34 18 SE 1015,4 49 0 0,0
17.10.2019 01:00:00 14,6 11,0 13,5 17,0 19,0 22 12 34 19 SE 1015,3 47 0 0,0
17.10.2019 00:00:00 14,9 10,9 13,7 17,1 19,0 19 10 33 18 SE 1015,9 49 0 0,0
16.10.2019 23:00:00 15,4 11,0 14,1 17,2 19,0 19 11 31 17 SE 1015,6 54 0 0,0
16.10.2019 22:00:00 16,0 11,0 14,5 17,2 19,0 18 10 31 17 SSE 1015,5 54 0 0,0
16.10.2019 21:00:00 16,4 10,5 14,2 17,3 19,0 16 8 26 14 SSE 1015,2 56 0 0,0
16.10.2019 20:00:00 17,2 9,6 14,9 17,3 19,0 13 7 20 11 SE 1014,8 55 0 0,0
16.10.2019 19:00:00 19,4 8,7 19,0 17,2 19,0 12 7 18 10 SSE 1014,4 57 17 0,0
16.10.2019 18:00:00 21,0 7,6 20,9 17,0 19,1 12 7 22 12 SE 1014,3 37 46 0,0
16.10.2019 17:00:00 20,6 7,2 21,1 16,8 19,1 14 8 27 14 ESE 1014,0 51 7 0,0
16.10.2019 16:00:00 21,6 8,5 25,7 16,5 19,0 17 9 39 21 SE 1014,5 22 57 0,0
16.10.2019 15:00:00 21,2 9,1 25,3 16,3 19,1 16 8 31 17 ESE 1015,0 23 60 0,0
16.10.2019 14:00:00 20,4 9,3 22,3 16,1 19,1 19 10 33 18 SE 1015,7 24 53 0,0
16.10.2019 13:00:00 18,7 9,2 20,6 15,9 19,0 23 12 43 23 SE 1016,5 25 49 0,0
16.10.2019 12:00:00 16,9 8,3 18,5 15,9 19,1 31 17 44 24 SE 1016,6 27 60 0,0
16.10.2019 11:00:00 14,8 8,1 17,0 15,9 19,1 26 14 - - SE 1017,1 32 60 0,0
16.10.2019 10:00:00 11,7 8,7 9,5 16,0 19,1 7 4 10 6 SSE 1017,7 36 60 0,0
16.10.2019 09:00:00 8,0 7,1 4,1 16,2 19,1 6 4 11 6 S 1017,9 39 29 0,0
16.10.2019 08:00:00 6,5 5,8 4,3 16,4 19,1 7 4 11 6 S 1018,1 52 0 0,0
16.10.2019 07:00:00 7,1 6,0 3,9 16,6 19,1 9 5 10 5 S 1018,2 52 0 0,0
16.10.2019 06:00:00 7,1 6,4 4,2 16,7 19,1 7 4 11 6 SSE 1018,0 55 0 0,0
16.10.2019 05:00:00 7,4 6,3 4,3 16,9 19,1 8 4 10 5 S 1018,3 55 0 0,0
16.10.2019 04:00:00 8,1 6,7 4,3 17,1 19,1 4 2 11 6 S 1018,4 60 0 0,0
16.10.2019 03:00:00 8,6 6,9 5,7 17,3 19,1 9 5 12 6 SSW 1018,7 60 0 0,0
16.10.2019 02:00:00 9,4 7,3 6,4 17,4 19,1 7 4 12 7 S 1019,1 58 0 0,0
16.10.2019 01:00:00 10,7 7,9 8,7 17,5 19,1 11 6 17 9 S 1019,3 59 0 0,0
16.10.2019 00:00:00 11,8 8,3 9,2 17,7 19,1 6 4 16 9 S 1019,6 55 0 0,0
15.10.2019 23:00:00 12,8 8,5 11,2 17,8 19,1 6 4 14 8 S 1019,7 56 0 0,0
15.10.2019 22:00:00 14,3 8,5 12,6 17,9 19,1 6 3 18 10 W 1019,3 54 0 0,0
15.10.2019 21:00:00 14,3 8,3 12,3 18,0 19,1 10 5 18 10 WNW 1019,2 57 0 0,0
15.10.2019 20:00:00 15,2 8,0 14,0 18,0 19,1 13 7 39 21 WNW 1019,1 60 0 0,0
15.10.2019 19:00:00 16,6 7,5 16,2 18,1 19,1 23 13 43 23 W 1018,2 58 48 0,0
15.10.2019 18:00:00 17,5 7,2 17,8 18,1 19,1 26 14 38 21 W 1017,4 28 38 0,0
15.10.2019 17:00:00 17,7 7,1 18,2 18,0 19,1 27 15 44 24 W 1017,1 24 38 0,0
15.10.2019 16:00:00 17,6 7,9 18,3 17,9 19,1 28 15 47 26 W 1017,2 33 19 0,0
15.10.2019 15:00:00 18,0 6,5 19,8 17,9 19,1 29 16 45 24 W 1016,9 20 46 0,0
15.10.2019 14:00:00 17,5 7,5 18,6 17,8 19,1 29 16 49 27 W 1017,2 20 44 0,0
15.10.2019 13:00:00 16,7 7,9 17,6 17,8 19,1 34 18 52 28 W 1017,2 22 48 0,0
15.10.2019 12:00:00 15,4 7,7 16,5 17,9 19,1 32 18 50 27 W 1017,3 29 48 0,0
15.10.2019 11:00:00 14,2 9,0 12,8 18,0 19,1 30 16 45 24 W 1016,8 33 49 0,0
15.10.2019 10:00:00 12,3 8,9 11,3 18,2 19,1 24 13 45 25 WSW 1016,2 44 3 0,0
15.10.2019 09:00:00 11,5 9,1 10,3 18,4 19,1 14 8 30 16 WSW 1015,6 60 10 0,0
15.10.2019 08:00:00 11,1 8,7 10,1 18,6 19,1 22 12 41 22 W 1014,4 60 0 0,0
15.10.2019 07:00:00 11,7 9,6 10,7 18,7 19,1 19 11 38 20 W 1014,3 60 0 0,2
15.10.2019 06:00:00 12,1 10,3 11,3 18,9 19,1 24 13 40 22 W 1013,8 46 0 0,0
15.10.2019 05:00:00 12,4 11,1 11,6 19,0 19,1 23 12 37 20 W 1013,3 28 0 0,8
15.10.2019 04:00:00 13,3 12,4 12,5 19,2 19,1 8 5 23 12 SW 1012,1 5 0 1,2
15.10.2019 03:00:00 13,5 12,1 12,6 19,3 19,1 11 6 24 13 NW 1011,6 60 0 0,0
15.10.2019 02:00:00 13,5 11,9 12,6 19,4 19,1 19 10 40 22 WNW 1012,4 9 0 0,6
15.10.2019 01:00:00 14,9 13,3 14,5 19,5 19,1 19 10 34 18 WNW 1011,5 53 0 0,0
15.10.2019 00:00:00 15,4 14,4 14,8 19,6 19,1 11 6 24 13 WNW 1010,8 39 0 0,2
14.10.2019 23:00:00 15,9 14,8 15,0 19,7 19,1 14 8 30 16 NNW 1008,7 17 0 0,6
14.10.2019 22:00:00 16,5 14,3 15,4 19,7 19,1 20 11 34 18 WNW 1009,0 39 0 1,6
14.10.2019 21:00:00 20,5 17,7 19,8 19,7 19,1 22 12 53 29 SSE 1007,6 14 0 0,0
14.10.2019 20:00:00 20,8 17,4 20,2 19,7 19,1 35 19 70 38 SE 1006,8 14 0 0,0
14.10.2019 19:00:00 21,3 17,1 20,8 19,7 19,0 45 24 70 38 SE 1006,6 16 37 0,0
14.10.2019 18:00:00 21,7 16,6 21,6 19,6 19,1 40 21 65 35 SE 1007,6 16 0 0,0
14.10.2019 17:00:00 22,0 16,7 21,7 19,5 19,0 41 22 64 35 SE 1008,2 15 0 0,0
14.10.2019 16:00:00 22,1 16,6 21,6 19,5 19,0 29 16 67 36 SSE 1009,1 12 0 0,0
14.10.2019 15:00:00 22,5 15,8 23,6 19,4 19,0 41 22 69 38 SE 1008,7 19 0 0,0
14.10.2019 14:00:00 22,2 16,0 21,4 19,4 19,0 42 23 84 45 SE 1008,7 19 0 0,0
14.10.2019 13:00:00 21,2 16,2 21,3 19,3 19,0 45 24 75 40 SE 1009,1 13 0 0,0
14.10.2019 12:00:00 21,4 16,1 21,7 19,3 19,0 47 26 79 43 SE 1009,9 14 0 0,0
14.10.2019 11:00:00 21,9 16,0 23,2 19,3 19,1 37 20 79 43 SE 1010,4 16 54 0,0
14.10.2019 10:00:00 20,9 15,9 20,2 19,4 19,1 39 21 64 35 SE 1010,5 19 60 0,0
14.10.2019 09:00:00 19,5 15,8 18,1 19,5 19,1 40 21 71 39 SE 1010,6 21 24 0,0
14.10.2019 08:00:00 18,9 15,8 17,9 19,5 19,0 39 21 70 38 SE 1010,9 19 0 0,0
14.10.2019 07:00:00 18,9 15,8 17,7 19,6 19,1 31 17 57 31 SE 1011,8 21 0 0,0
14.10.2019 06:00:00 18,8 15,7 18,0 19,6 19,0 34 18 63 34 SE 1012,1 21 0 0,0
14.10.2019 05:00:00 19,0 15,9 18,1 19,7 19,0 40 22 65 35 SE 1011,6 21 0 0,0
14.10.2019 04:00:00 19,2 15,9 18,4 19,8 19,1 35 19 62 33 SE 1011,8 22 0 0,0
14.10.2019 03:00:00 19,7 16,2 18,7 19,8 19,0 29 16 58 31 SE 1012,0 24 0 0,0
14.10.2019 02:00:00 19,9 16,5 19,0 19,9 19,1 30 16 62 33 SE 1012,2 22 0 0,0
14.10.2019 01:00:00 19,9 16,7 18,6 20,0 19,0 24 13 44 24 ESE 1012,9 23 0 0,0
14.10.2019 00:00:00 19,6 16,8 18,8 20,0 19,0 23 12 49 26 SE 1013,6 21 0 0,0
13.10.2019 23:00:00 19,7 16,5 19,2 20,1 19,0 27 14 49 27 ESE 1013,9 24 0 0,0
13.10.2019 22:00:00 19,7 16,3 19,1 20,1 19,0 30 16 47 26 SE 1013,8 24 0 0,0
13.10.2019 21:00:00 20,0 16,6 19,6 20,1 19,1 31 17 55 30 ESE 1013,8 24 0 0,0
13.10.2019 20:00:00 20,3 16,9 20,0 20,1 19,0 31 17 64 35 ESE 1013,5 23 0 0,0
13.10.2019 19:00:00 21,0 17,0 20,9 20,1 19,1 29 16 61 33 ESE 1013,4 28 9 0,0
13.10.2019 18:00:00 22,4 16,9 23,9 20,0 19,1 28 15 57 31 ESE 1013,3 13 60 0,0
13.10.2019 17:00:00 23,4 16,7 24,7 19,8 19,1 41 22 68 37 SE 1013,1 12 60 0,0
13.10.2019 16:00:00 24,8 16,2 28,8 19,6 19,1 35 19 64 34 ESE 1012,8 12 60 0,0
13.10.2019 15:00:00 25,2 16,3 29,2 19,3 19,1 36 19 71 38 SE 1012,8 10 60 0,0
13.10.2019 14:00:00 25,8 16,6 29,1 19,1 19,0 34 18 59 32 SE 1013,5 12 60 0,0
13.10.2019 13:00:00 25,0 16,2 27,7 19,0 19,1 34 18 60 32 SE 1013,9 11 60 0,0
13.10.2019 12:00:00 24,2 15,9 25,7 18,9 19,0 38 20 66 35 SE 1014,0 13 60 0,0
13.10.2019 11:00:00 22,9 16,4 23,5 18,9 19,1 35 19 61 33 SE 1014,0 15 60 0,0
13.10.2019 10:00:00 21,3 16,5 21,0 18,9 19,1 35 19 56 30 SE 1013,8 17 60 0,0
13.10.2019 09:00:00 19,7 16,3 18,1 18,9 19,1 23 12 46 25 SE 1014,1 35 33 0,0
13.10.2019 08:00:00 19,1 16,1 18,0 19,0 19,1 23 12 54 29 SE 1013,8 27 0 0,0
13.10.2019 07:00:00 19,0 16,2 18,0 19,0 19,1 26 14 49 26 SE 1013,4 28 0 0,0
13.10.2019 06:00:00 19,1 16,1 18,1 19,1 19,1 26 14 53 29 SE 1013,3 29 0 0,0
13.10.2019 05:00:00 19,4 16,2 18,6 19,1 19,1 32 17 54 29 SE 1013,6 30 0 0,0
13.10.2019 04:00:00 19,6 16,4 18,4 19,2 19,1 22 12 61 33 SE 1014,3 32 0 0,0
13.10.2019 03:00:00 19,5 16,7 18,9 19,2 19,1 32 17 58 31 SE 1014,5 27 0 0,0
13.10.2019 02:00:00 19,5 16,7 19,1 19,2 19,1 29 16 63 34 SE 1015,1 33 0 0,0
13.10.2019 01:00:00 19,5 16,5 19,1 19,3 19,1 35 19 62 34 SE 1014,9 35 0 0,0
13.10.2019 00:00:00 19,6 16,6 19,0 19,3 19,1 34 19 58 31 SE 1015,0 37 0 0,0
12.10.2019 23:00:00 19,8 16,6 19,4 19,3 19,1 30 16 57 31 SE 1015,3 34 0 0,0
12.10.2019 22:00:00 19,9 16,7 19,3 19,3 19,1 33 18 60 33 SE 1015,2 32 0 0,0
12.10.2019 21:00:00 20,2 16,4 19,6 19,3 19,1 35 19 62 34 ESE 1015,1 28 0 0,0

tt = Température de l'air
td = dewpoint
tt 5cm = Température de l'air 5cm
tt -20cm = Température de l'air -20cm
tt -100cm = Température de l'air -100cm
ff = Vitesse du vent
fx = gusts
dd = Direction du vent
ppp = reduced air pressure
vv = visibility
sd = Ensoleillement
rr = Quantités de précipitations

stations d'obs. à proximité